Terminal Aerodrome Forecast
Issued by NWS Chicago, IL

Home | Current Version | Previous Version | Graphics & Text | Print | Product List | Glossary On
Versions: 1 2 3 4 5 6 7 8 9 10 11 12 13 14 15 16 17 18 19 20 21 22 23 24 25 26 27 28 29 30 31 32 33
000
FTUS43 KLOT 162300
TAFRFD
TAF
KRFD 162321Z 1700/1724 17018G25KT P6SM SCT120 BKN250
     FM170300 16016KT P6SM BKN050 WS020/19041KT
     FM170900 17010KT P6SM BKN050 WS020/20045KT
     FM171500 23012G18KT P6SM BKN050 BKN180=

USA.gov is the U.S. government's official web portal to all federal, state and local government web resources and services.